Showing default

NAPA-1, 46320

Orbit data source: Space-Track

NAPA-1, 46320 is a payload satellite owned by RTAF (TH) in SSO that was launched on Thu, 03 Sep 2020 UTC via a VEGA launch vehicle from the French Guiana (FRGUI). Payload-class satellites include a variety of spacecraft equipped with specific instruments for various scientific and technological missions. These include communications satellites like Starlink; space stations such as the ISS; scientific satellites like the Hubble; Earth observation satellites from companies like Planet Labs, Umbra, and HawkEye 360; GPS; miniature CubeSats for education and research; and military/defense satellites.

Loading next visibility...
Identifier
46320, 2020-061BA
Orbit
SSO
Country
Flag of UnknownUnknown / THAI
Related business
Manufacturer
ISIS BV
Mission
Operational Defense Imaging
Bus & Motor
CUBESAT 6U, Unknown motor
Mass
10 kg wet, 10 kg dry
Launch date (UTC)
2020-09-03 (5 years ago)
Launch vehicle
VEGA
Launch site
French Guiana (FRGUI)
Object type
Payload
Rocket body
Debris
Shape & HBR
Box, Unknown HBR
Radar Cross Section
0.080 m², Medium (>0.1 m² and < 1m²)

Expand to show TLE details & history
Last TLE update: 5 hours ago

TLE from 5 hours ago
0 NAPA-1
1 46320U 20061BA  25312.17134113  .00028910  00000-0  58602-3 0  9992
2 46320  97.2818  17.5619 0002019 113.6534 246.4928 15.46351024287368
Epoch: 2025-11-08T04:06Z
TLE epoch observation values (Epoch: 2025-11-08T04:06:43.873Z)
Latitude
-0.00001°
Longitude
-91.72568°
Altitude
431.089 km
Speed
7.653 km/s
True Right ascension
01h 10m 14s
True Declination
0° 00' 00"
Sunlit
Object was in full shadow at epoch
Visualization orbit readout
Latitude
Unknown
Longitude
Unknown
Altitude
Unknown
Speed
Unknown
Apparent Right ascension
Unknown
Apparent Declination
Unknown
Sunlit
N/A
Visualization observer readout
Local Sidereal Time
05:28:10
Azimuth
Unknown
Elevation
Unknown
Doppler factor
Unknown
Orbital elements
Apogee altitude
425.71 km
Perigee altitude
422.963 km
Semi-major axis
6,802.474 km
Eccentricity
0.0002
Inclination
97.2818°
RAAN
17.5619°
Arg. of periapsis
113.6534°
True anomaly
246.47159°
Mean anomaly
246.4928°
Eccentric anomaly
246.48219°
Mean motion
3.8685 °/min
Orbital period
93.06 mins
BSTAR
0.00058602
Loading maneuver chart data...
Computing Atmospheric mass density...
Loading historical data...
Loading historical data...
Loading historical data...
Loading historical data...
Loading historical data...
Loading historical data...
Loading historical data...

Documentation

Showing up to 5 results
|